Hourly Weather Roundup
Issued by NWS Central Illinois

Home | Current Version | Previous Version | Text Only | Print | Product List | Glossary On
Versions: 1 2 3 4 5 6 7 8 9 10 11 12 13 14 15 16 17 18 19 20 21 22 23 24 25 26 27 28 29 30 31 32 33 34 35 36 37 38 39 40 41 42 43 44 45 46 47 48 49 50
000
NZUS43 KILX 240610
HWRILX

AREA WEATHER ROUNDUP
NATIONAL WEATHER SERVICE, LINCOLN IL
100 AM CDT THU APR 24 2014


CITY           SKY/WX    TMP DP  RH WIND       PRES   REMARKS
BLOOMINGTON    FAIR      50  35  56 SE13      30.00R
CHAMPAIGN      MOCLDY    51  37  58 SE10      30.00S
6HR MIN TEMP:  51; 6HR MAX TEMP:  60; 6HR PCP:  0.01;

DANVILLE       FAIR      51  34  51 E6        29.99F
6HR MIN TEMP:  51; 6HR MAX TEMP:  58;

DECATUR        FAIR      53  33  46 SE10      29.98F
6HR MIN TEMP:  53; 6HR MAX TEMP:  60;

FLORA          FAIR      48  38  68 E5        30.00F
6HR MIN TEMP:  47; 6HR MAX TEMP:  60;

GALESBURG      FAIR      49  39  67 E9        29.93R
JACKSONVILLE   FAIR      51  34  50 SE13      29.93F
6HR MIN TEMP:  51; 6HR MAX TEMP:  60;

LACON          FAIR      44  37  77 E10G16    29.99S
6HR MIN TEMP:  44; 6HR MAX TEMP:  54; 6HR PCP:  0.03;

LAWRENCEVILLE  FAIR      53  36  52 E8        30.02R
6HR MIN TEMP:  53; 6HR MAX TEMP:  62;

LITCHFIELD     FAIR      52  35  51 SE9       29.95F
$$


CITY           SKY/WX    TMP DP  RH WIND       PRES   REMARKS
LINCOLN        FAIR      55  32  42 SE9       29.96S
6HR MIN TEMP:  55; 6HR MAX TEMP:  60;

MACOMB         FAIR      51  33  49 SE10      29.94S
MATTOON        FAIR      52  32  46 SE9       30.00R
6HR MIN TEMP:  52; 6HR MAX TEMP:  58;

MT CARMEL AP   FAIR      52  37  58 E6        30.02R
OLNEY-NOBLE AP MOCLDY    54  36  50 E7        30.00F
PARIS          MOCLDY    52  36  53 SE5       30.02S
6HR MIN TEMP:  52; 6HR MAX TEMP:  59;

PEORIA         FAIR      53  36  52 E7        29.97F
6HR MIN TEMP:  53; 6HR MAX TEMP:  55; 6HR PCP: TRACE;

PONTIAC        FAIR      45  39  81 E10       30.01F
RANTOUL        FAIR      52  39  61 CALM      30.00F
6HR MIN TEMP:  52; 6HR MAX TEMP:  61;

ROBINSON       FAIR      51  38  60 SE6       30.03S
6HR MIN TEMP:  51; 6HR MAX TEMP:  60;

SPRINGFIELD    FAIR      55  31  39 SE13      29.95F
6HR MIN TEMP:  54; 6HR MAX TEMP:  61;

TAYLORVILLE    FAIR      52  34  50 SE7       29.97F
$$

...REGIONAL REPORTS...


CITY           SKY/WX    TMP DP  RH WIND       PRES   REMARKS
CHICAGO O`HARE LGT RAIN  40  29  64 N8        30.08R WCI  34
KANKAKEE       MOCLDY    42  38  84 E5        30.05R
MOLINE         MOCLDY    47  39  74 E14       29.95R
MOUNT VERNON   FAIR      52  30  43 E3        30.00F
PITTSFIELD     FAIR      54  33  45 SE12      29.91F
QUINCY         FAIR      53  33  46 SE17G25   29.88S
ROCKFORD       CLOUDY    40  29  64 E10       30.06S WCI  33
$$


CITY           SKY/WX    TMP DP  RH WIND       PRES   REMARKS
BURLINGTON     FAIR      53  32  44 SE10      29.90R
CEDAR RAPIDS   CLOUDY    47  39  74 SE15      29.89S
DES MOINES     LGT RAIN  52  39  61 SE13      29.78F
KIRKSVILLE     FAIR      54  35  48 SE16      29.83R
OTTUMWA        FAIR      49  35  58 E10       29.85R
ST LOUIS       CLOUDY    58  32  37 SE16G24   29.93F
$$


CITY           SKY/WX    TMP DP  RH WIND       PRES   REMARKS
TERRE HAUTE    FAIR      51  36  56 SE3       30.02S
EVANSVILLE     FAIR      53  37  54 NE3       30.03R
INDIANAPOLIS   CLOUDY    52  31  44 E13       30.02F
LAFAYETTE      CLOUDY    53  31  42 SE6       30.03R
MADISON        CLOUDY    39  30  70 MISG      30.08R
MILWAUKEE      LGT RAIN  38  23  55 NE7       30.08F WCI  33
$$




USA.gov is the U.S. government's official web portal to all federal, state and local government web resources and services.